Tracking 19246 objects as of 20-Aug-2018
HD Live streaming from Space Station
objects crossing your sky now

COSMOS 1766

Track COSMOS 1766 now!
10-day predictions
COSMOS 1766 is classified as:


NORAD ID: 16881
Int'l Code: 1986-055A
Perigee: 528.7 km
Apogee: 554.6 km
Inclination: 82.5 °
Period: 95.3 minutes
Semi major axis: 6912 km
RCS: 9.3716 m2 (large)
Launch date: July 28, 1986
Source: Commonwealth of Independent States (former USSR) (CIS)
Launch site: PLESETSK MISSILE AND SPACE COMPLEX (PKMTR)
aabbcc
Your satellite tracking list
Your tracking list is empty




NASA's NSSDC Master Catalog

Two Line Element Set (TLE):
1 16881U 86055A   18231.81639993  .00000466  00000-0  26260-4 0  9997
2 16881  82.5060 324.2396 0018734  67.6098 292.7114 15.10543870746136
Source of the keplerian elements: AFSPC